FW5214 Weather Reports


time (UTC)temp
C
wind
direction
speed
KPH
gust
KPH
rain 1hr
cm
rain 24hr
cm
rain mn
cm
humidity
%
barometer
mb
20260906010034 20 360 0.0 0.0 0.00 0.00 0.00 69 1023.5
20260906004533 20 360 0.0 0.0 0.00 0.00 0.00 69 1023.5
20260906003035 20 360 0.0 0.0 0.00 0.00 0.00 69 1023.5
20260906001532 20 360 0.0 0.0 0.00 0.00 0.00 69 1023.6
20260906000029 20 360 0.0 0.0 0.00 0.00 0.00 67 1023.5
20260905234527 20 360 0.0 0.0 0.00 0.00 0.00 67 1023.4
20260905233033 20 360 0.0 0.0 0.00 0.00 0.00 67 1023.3
20260905231528 20 360 0.0 0.0 0.00 0.00 0.00 67 1023.3
20260905230025 21 360 0.0 0.0 0.00 0.00 0.00 66 1023.3
20260905224521 21 360 0.0 0.0 0.00 0.00 0.00 65 1023.2
20260905223019 21 360 0.0 0.0 0.00 0.00 0.00 64 1023.1
20260905221518 21 360 0.0 0.0 0.00 0.00 0.00 63 1022.9
20260905220016 21 360 0.0 0.0 0.00 0.00 0.00 63 1023.0
20260905214516 21 360 0.0 0.0 0.00 0.00 0.00 62 1022.7
20260905211512 22 360 0.0 0.0 0.00 0.00 0.00 60 1022.2
20260905210010 22 360 0.0 0.0 0.00 0.00 0.00 60 1022.0
20260905204508 22 360 0.0 0.0 0.00 0.00 0.00 60 1021.8
20260905203006 22 360 0.0 0.0 0.00 0.00 0.00 59 1021.8
20260905201505 22 360 0.0 0.0 0.00 0.00 0.00 59 1021.6
20260905200004 22 360 0.0 0.0 0.00 0.00 0.00 59 1021.4
20260905194503 22 360 0.0 0.0 0.00 0.00 0.00 59 1021.4
20260905193002 22 360 0.0 0.0 0.00 0.00 0.00 58 1021.3
20260905191500 22 360 0.0 0.0 0.00 0.00 0.00 57 1021.1
20260905190059 23 360 0.0 0.0 0.00 0.00 0.00 56 1020.9
20260905184601 23 360 0.0 0.0 0.00 0.00 0.00 56 1020.8
20260905183056 23 360 0.0 0.0 0.00 0.00 0.00 55 1020.5
20260905181554 23 360 0.0 0.0 0.00 0.00 0.00 55 1020.3
20260905180052 23 360 0.0 0.0 0.00 0.00 0.00 54 1020.0
20260905174552 24 360 0.0 0.0 0.00 0.00 0.00 52 1019.8
20260905173050 25 360 0.0 0.0 0.00 0.00 0.00 51 1019.7
20260905171558 26 360 0.0 3.2 0.00 0.00 0.00 49 1019.3
20260905170048 26 360 0.0 4.8 0.00 0.00 0.00 48 1019.2
20260905164548 26 360 1.6 8.0 0.00 0.00 0.00 47 1018.9
20260905163051 27 360 1.6 6.4 0.00 0.00 0.00 46 1018.6
20260905161542 27 360 1.6 17.7 0.00 0.00 0.00 45 1018.6
20260905160041 27 360 11.3 20.9 0.00 0.00 0.00 45 1018.4
20260905154545 28 360 9.7 25.7 0.00 0.00 0.00 45 1018.3
20260905153038 28 360 8.0 19.3 0.00 0.00 0.00 43 1018.2
20260905151538 29 360 9.7 17.7 0.00 0.00 0.00 42 1017.9
20260905150043 29 360 6.4 20.9 0.00 0.00 0.00 42 1017.9
20260905144538 30 360 6.4 16.1 0.00 0.00 0.00 42 1017.8
20260905143038 30 360 3.2 17.7 0.00 0.00 0.00 41 1017.6
20260905141537 30 360 9.7 20.9 0.00 0.00 0.00 42 1017.5
20260905140036 30 360 8.0 17.7 0.00 0.00 0.00 42 1017.7
20260905134534 30 360 9.7 24.1 0.00 0.00 0.00 41 1017.6
20260905133034 30 360 6.4 20.9 0.00 0.00 0.00 42 1017.7
20260905131537 30 360 11.3 25.7 0.00 0.00 0.00 42 1017.7
20260905130033 30 360 11.3 24.1 0.00 0.00 0.00 42 1017.7
20260905124534 30 360 11.3 22.5 0.00 0.00 0.00 42 1017.9
20260905123038 30 360 6.4 19.3 0.00 0.00 0.00 41 1017.9
20260905121537 30 360 9.7 25.7 0.00 0.00 0.00 43 1018.0
20260905120130 30 360 11.3 27.4 0.00 0.00 0.00 43 1018.0
20260905114529 30 360 11.3 30.6 0.00 0.00 0.00 43 1018.1
20260905113029 31 360 6.4 19.3 0.00 0.00 0.00 42 1017.8
20260905111529 32 360 8.0 27.4 0.00 0.00 0.00 41 1017.5
20260905110025 32 360 1.6 9.7 0.00 0.00 0.00 46 1017.4
20260905104524 32 360 3.2 16.1 0.00 0.00 0.00 46 1017.4
20260905103021 31 360 1.6 12.9 0.00 0.00 0.00 48 1017.6
20260905101518 31 360 3.2 8.0 0.00 0.00 0.00 47 1017.5
20260905100021 31 360 3.2 9.7 0.00 0.00 0.00 47 1017.4
20260905094513 31 360 3.2 14.5 0.00 0.00 0.00 46 1017.2
20260905093011 32 360 4.8 12.9 0.00 0.00 0.00 44 1017.0
20260905091506 32 360 3.2 12.9 0.00 0.00 0.00 42 1016.6
20260905090006 32 360 3.2 9.7 0.00 0.00 0.00 41 1016.6
20260905084607 32 360 1.6 9.7 0.00 0.00 0.00 40 1016.4
20260905083057 31 360 1.6 8.0 0.00 0.00 0.00 41 1016.4
20260905081553 31 360 0.0 6.4 0.00 0.00 0.00 39 1016.3
20260905080104 31 360 0.0 0.0 0.00 0.00 0.00 40 1016.2
20260905074556 31 360 0.0 0.0 0.00 0.00 0.00 43 1016.1
20260905073041 30 360 0.0 4.8 0.00 0.00 0.00 43 1015.9
20260905071542 29 360 1.6 6.4 0.00 0.00 0.00 44 1015.7
20260905070032 28 360 3.2 6.4 0.00 0.00 0.00 47 1015.6
20260905064527 27 360 4.8 8.0 0.00 0.00 0.00 49 1015.5
20260905063024 26 360 4.8 9.7 0.00 0.00 0.00 51 1015.4
20260905061528 25 360 4.8 8.0 0.00 0.00 0.00 54 1015.4
20260905060017 25 360 3.2 9.7 0.00 0.00 0.00 56 1015.4
20260905054513 23 360 1.6 6.4 0.00 0.00 0.00 58 1015.2
20260905053007 23 360 1.6 6.4 0.00 0.00 0.00 58 1015.1
20260905051503 23 360 4.8 8.0 0.00 0.00 0.00 58 1014.9
20260905050103 22 360 0.0 9.7 0.00 0.00 0.00 61 1015.0
20260905044553 21 360 0.0 0.0 0.00 0.00 0.00 62 1014.9
20260905043051 21 360 0.0 8.0 0.00 0.00 0.00 63 1014.9
20260905041550 21 360 3.2 9.7 0.00 0.00 0.00 64 1014.9
20260905034548 20 360 0.0 0.0 0.00 0.00 0.00 67 1014.6
20260905033053 20 360 0.0 0.0 0.00 0.00 0.00 67 1014.6
20260905031549 19 360 0.0 0.0 0.00 0.00 0.00 68 1014.6
20260905030049 19 360 0.0 0.0 0.00 0.00 0.00 69 1014.7
20260905024601 19 360 0.0 0.0 0.00 0.00 0.00 69 1014.6
20260905023048 19 360 0.0 0.0 0.00 0.00 0.00 70 1014.8
20260905021544 18 360 0.0 0.0 0.00 0.00 0.00 71 1014.8
20260905020042 18 360 0.0 0.0 0.00 0.00 0.00 72 1014.8
20260905014543 19 360 0.0 0.0 0.00 0.00 0.00 70 1014.8
20260905013101 19 360 0.0 0.0 0.00 0.00 0.00 71 1014.8
20260905011541 18 360 0.0 0.0 0.00 0.00 0.00 71 1014.9